Weather History for PAPG - March, 2013

Change the Weather History Date:

Thursday, March 7, 2013

  Actual Average Record
Temperature  
Mean Temperature 31 °F -  
Max Temperature 39 °F 34 °F - (-1)
Min Temperature 23 °F 25 °F - (-1)
Degree Days  
Heating Degree Days 34    
Moisture  
Dew Point 22 °F    
Average Humidity 73    
Maximum Humidity 93    
Minimum Humidity 42    
Precipitation  
Precipitation 0.00 in - - ()
Sea Level Pressure  
Sea Level Pressure 30.04 in    
Wind  
Wind Speed 2 mph (West)    
Max Wind Speed 6 mph    
Max Gust Speed -    
Visibility 10 miles    
Events      
Averages and records for this station are not official NWS values.
T = Trace of Precipitation, MM = Missing Value Source: NWS Daily Summary

Daily Weather History Graph

Daily Weather History Graph

Search for Another Location

Airport or City:

Trip Planner

Search our weather history database for the weather conditions in past years. The results will help you decide how hot, cold, wet, or windy it might be!

Date:

Astronomy

Mar. 07, 2013 Rise Set
Actual Time 6:27 AM AKST 5:38 PM AKST
Civil Twilight 5:49 AM AKST 6:16 PM AKST
Nautical Twilight 5:05 AM AKST 7:00 PM AKST
Astronomical Twilight 4:20 AM AKST 7:46 PM AKST
Moon 4:15 AM AKST (3/7) 12:55 PM AKST (3/7)
Length of Visible Light 12h 27m
Length of Day
11h 11m
Waning Crescent, 19% of the Moon is Illuminated
Mar 7
Waning Crescent
Mar 11
New
Mar 19
First Quarter
Mar 27
Full
Apr 2
Last Quarter

Hourly Weather History & Observations

Time (AKST) Temp. Windchill Dew Point Humidity Pressure Visibility Wind Dir Wind Speed Gust Speed Precip Events Conditions
12:16 AM 26.6 °F 22.6 °F 21.2 °F 80% 29.98 in 10.0 mi SW 3.5 mph - N/A   Clear
12:36 AM 24.8 °F 20.5 °F 19.4 °F 80% 29.99 in 10.0 mi SW 3.5 mph - N/A   Clear
12:56 AM 26.6 °F 22.6 °F 21.2 °F 80% 29.99 in 10.0 mi WSW 3.5 mph - N/A   Clear
1:16 AM 26.6 °F 22.6 °F 21.2 °F 80% 29.99 in 10.0 mi South 3.5 mph - N/A   Clear
1:36 AM 24.8 °F - 21.2 °F 86% 29.99 in 10.0 mi Calm Calm - N/A   Clear
1:56 AM 24.8 °F - 19.4 °F 80% 29.99 in 10.0 mi Calm Calm - N/A   Clear
2:16 AM 26.6 °F - 23.0 °F 86% 30.00 in 10.0 mi Calm Calm - N/A   Clear
2:36 AM 24.8 °F 20.5 °F 21.2 °F 86% 30.00 in 10.0 mi WSW 3.5 mph - N/A   Clear
2:56 AM 24.8 °F 20.5 °F 21.2 °F 86% 30.00 in 10.0 mi WSW 3.5 mph - N/A   Clear
3:16 AM 26.6 °F 21.2 °F 21.2 °F 80% 30.00 in 10.0 mi SSW 4.6 mph - N/A   Clear
3:36 AM 24.8 °F - 21.2 °F 86% 30.00 in 10.0 mi Calm Calm - N/A   Clear
3:56 AM 24.8 °F - 21.2 °F 86% 30.00 in 10.0 mi Calm Calm - N/A   Clear
4:16 AM 26.6 °F - 21.2 °F 80% 30.00 in 10.0 mi Calm Calm - N/A   Clear
4:36 AM 24.8 °F 20.5 °F 21.2 °F 86% 30.00 in 10.0 mi SW 3.5 mph - N/A   Clear
4:56 AM 24.8 °F - 21.2 °F 86% 30.00 in 10.0 mi Calm Calm - N/A   Clear
5:16 AM 23.0 °F - 19.4 °F 86% 30.00 in 10.0 mi Calm Calm - N/A   Clear
5:36 AM 23.0 °F - 21.2 °F 93% 30.00 in 10.0 mi Calm Calm - N/A   Clear
5:56 AM 24.8 °F - 21.2 °F 86% 30.00 in 10.0 mi Calm Calm - N/A   Clear
6:16 AM 23.0 °F 17.0 °F 21.2 °F 93% 30.01 in 10.0 mi WSW 4.6 mph - N/A   Clear
6:36 AM 23.0 °F 18.4 °F 21.2 °F 93% 30.01 in 10.0 mi SW 3.5 mph - N/A   Clear
6:56 AM 23.0 °F 18.4 °F 19.4 °F 86% 30.01 in 10.0 mi WSW 3.5 mph - N/A   Clear
7:16 AM 24.8 °F - 21.2 °F 86% 30.01 in 10.0 mi Calm Calm - N/A   Clear
7:36 AM 24.8 °F - 21.2 °F 86% 30.02 in 10.0 mi Calm Calm - N/A   Clear
7:56 AM 24.8 °F - 21.2 °F 86% 30.03 in 10.0 mi Calm Calm - N/A   Clear
8:16 AM 26.6 °F - 24.8 °F 93% 30.03 in 10.0 mi Calm Calm - N/A   Clear
8:36 AM 28.4 °F - 24.8 °F 86% 30.03 in 10.0 mi Calm Calm - N/A   Clear
8:56 AM 30.2 °F - 24.8 °F 80% 30.04 in 10.0 mi Calm Calm - N/A   Clear
9:16 AM 32.0 °F - 24.8 °F 75% 30.04 in 10.0 mi Calm Calm - N/A   Clear
9:36 AM 32.0 °F - 23.0 °F 69% 30.05 in 10.0 mi Calm Calm - N/A   Clear
9:56 AM 33.8 °F - 23.0 °F 65% 30.05 in 10.0 mi Calm Calm - N/A   Clear
10:16 AM 33.8 °F - 23.0 °F 65% 30.05 in 10.0 mi Calm Calm - N/A   Clear
10:36 AM 35.6 °F - 24.8 °F 65% 30.05 in 10.0 mi Calm Calm - N/A   Clear
10:56 AM 37.4 °F 33.8 °F 24.8 °F 60% 30.05 in 10.0 mi ENE 4.6 mph - N/A   Clear
11:16 AM 35.6 °F 32.8 °F 23.0 °F 60% 30.05 in 10.0 mi ENE 3.5 mph - N/A   Clear
11:36 AM 37.4 °F 33.8 °F 23.0 °F 56% 30.06 in 10.0 mi NNE 4.6 mph - N/A   Clear
1:16 PM 39.2 °F 37.0 °F 19.4 °F 45% 30.06 in 10.0 mi North 3.5 mph - N/A   Clear
1:36 PM 39.2 °F - 17.6 °F 42% 30.06 in 10.0 mi Calm Calm - N/A   Clear
1:56 PM 39.2 °F - 19.4 °F 45% 30.06 in 10.0 mi Calm Calm - N/A   Clear
2:16 PM 39.2 °F 35.9 °F 19.4 °F 45% 30.06 in 10.0 mi NNE 4.6 mph - N/A   Clear
2:36 PM 39.2 °F 35.9 °F 19.4 °F 45% 30.07 in 10.0 mi ENE 4.6 mph - N/A   Clear
2:56 PM 39.2 °F 35.0 °F 19.4 °F 45% 30.06 in - ENE 5.8 mph - N/A   Clear
3:16 PM 39.2 °F 35.0 °F 21.2 °F 49% 30.06 in 10.0 mi ENE 5.8 mph - N/A   Clear
3:36 PM 39.2 °F 37.0 °F 21.2 °F 49% 30.05 in 10.0 mi ENE 3.5 mph - N/A   Clear
3:56 PM 39.2 °F 37.0 °F 19.4 °F 45% 30.05 in 10.0 mi North 3.5 mph - N/A   Clear
4:16 PM 39.2 °F 37.0 °F 17.6 °F 42% 30.04 in 10.0 mi NNW 3.5 mph - N/A   Clear
4:36 PM 39.2 °F - 19.4 °F 45% 30.04 in 10.0 mi Calm Calm - N/A   Clear
4:56 PM 39.2 °F - 21.2 °F 49% 30.04 in 10.0 mi Calm Calm - N/A   Clear
5:16 PM 37.4 °F - 21.2 °F 52% 30.04 in 10.0 mi Calm Calm - N/A   Clear
5:36 PM 35.6 °F - 21.2 °F 56% 30.05 in 10.0 mi Calm Calm - N/A   Clear
5:56 PM 33.8 °F - 21.2 °F 60% 30.05 in 10.0 mi Calm Calm - N/A   Clear
6:16 PM 33.8 °F - 21.2 °F 60% 30.06 in 10.0 mi Calm Calm - N/A   Clear
6:36 PM 30.2 °F - 23.0 °F 75% 30.06 in 10.0 mi Calm Calm - N/A   Clear
6:56 PM 32.0 °F - 21.2 °F 64% 30.07 in 10.0 mi Calm Calm - N/A   Clear
7:16 PM 32.0 °F - 21.2 °F 64% 30.07 in 10.0 mi Calm Calm - N/A   Clear
7:36 PM 30.2 °F - 23.0 °F 75% 30.07 in 10.0 mi Calm Calm - N/A   Clear
7:56 PM 28.4 °F - 24.8 °F 86% 30.07 in 10.0 mi Calm Calm - N/A   Clear
8:16 PM 28.4 °F 24.6 °F 23.0 °F 80% 30.08 in 10.0 mi WSW 3.5 mph - N/A   Clear
8:36 PM 28.4 °F - 24.8 °F 86% 30.08 in 10.0 mi Calm Calm - N/A   Clear
8:56 PM 28.4 °F - 24.8 °F 86% 30.08 in 10.0 mi Calm Calm - N/A   Clear
9:16 PM 28.4 °F - 23.0 °F 80% 30.08 in 10.0 mi Calm Calm - N/A   Clear
9:36 PM 28.4 °F - 24.8 °F 86% 30.09 in 10.0 mi Calm Calm - N/A   Clear
9:56 PM 28.4 °F - 23.0 °F 80% 30.09 in 10.0 mi Calm Calm - N/A   Clear
10:16 PM 28.4 °F - 24.8 °F 86% 30.09 in 10.0 mi Calm Calm - N/A   Clear
10:36 PM 26.6 °F - 23.0 °F 86% 30.09 in 10.0 mi Calm Calm - N/A   Clear
10:56 PM 28.4 °F 24.6 °F 24.8 °F 86% 30.09 in 10.0 mi WSW 3.5 mph - N/A   Clear
11:16 PM 26.6 °F - 24.8 °F 93% 30.10 in 10.0 mi Calm Calm - N/A   Clear
11:36 PM 28.4 °F - 24.8 °F 86% 30.10 in 10.0 mi Calm Calm - N/A   Clear
11:56 PM 28.4 °F - 24.8 °F 86% 30.10 in 10.0 mi Calm Calm - N/A   Clear